,,Stat5,,Stat1,,Stat2,,Stat3,,Stat4,,Wind1,,Wind1,
time,status,PA1M_AVG,status,PR1M_SUM,status,RH1M_AVG,status,SR1M_AVG,status,TA1M_AVG,status,W1dAve1m,status,W1sAve1m,
2003-04-12, 00:00:01,VALID,919.14,VALID,0,VALID,99.9405,VALID,-0.0339617,VALID,19.4463,VALID,209,VALID,0.426809,
2003-04-12, 00:01:00,VALID,919.138,VALID,0,VALID,99.9418,VALID,-0.0509425,VALID,19.4359,VALID,222,VALID,0.571368,
2003-04-12, 00:02:00,VALID,919.142,VALID,0,VALID,99.9418,VALID,-0.0339617,VALID,19.4356,VALID,196,VALID,0.357052,
2003-04-12, 00:03:00,VALID,919.15,VALID,0,VALID,99.9456,VALID,-0.0339617,VALID,19.4324,VALID,205,VALID,0.648003,
2003-04-12, 00:04:00,VALID,919.133,VALID,0,VALID,99.9418,VALID,-0.0509425,VALID,19.4359,VALID,207,VALID,0.218349,
2003-04-12, 00:05:00,VALID,919.126,VALID,0,VALID,99.9545,VALID,-0.0679233,VALID,19.4329,VALID,213,VALID,0.420397,
2003-04-12, 00:06:00,VALID,919.106,VALID,0,VALID,99.9519,VALID,-0.0679233,VALID,19.4225,VALID,232,VALID,0.522266,
2003-04-12, 00:07:00,VALID,919.091,VALID,0,VALID,99.9507,VALID,-0.0509425,VALID,19.4132,VALID,222,VALID,0.664063,
2003-04-12, 00:08:00,VALID,919.061,VALID,0,VALID,99.9507,VALID,-0.0509425,VALID,19.4227,VALID,242,VALID,0.728002,
2003-04-12, 00:09:00,VALID,919.04,VALID,0,VALID,99.9583,VALID,-0.0679233,VALID,19.4237,VALID,240,VALID,0.580295,
2003-04-12, 00:10:00,VALID,919.021,VALID,0,VALID,99.9596,VALID,-0.0169808,VALID,19.4197,VALID,201,VALID,0.646998,
2003-04-12, 00:11:00,VALID,919.018,VALID,0,VALID,99.9659,VALID,-0.0849042,VALID,19.4229,VALID,197,VALID,0.4375,
2003-04-12, 00:12:00,VALID,919.023,VALID,0,VALID,99.957,VALID,-0.0169808,VALID,19.4326,VALID,214,VALID,0.376953,
2003-04-12, 00:13:00,VALID,919.013,VALID,0,VALID,99.957,VALID,-0.0169808,VALID,19.4458,VALID,238,VALID,0.235008,
2003-04-12, 00:14:00,VALID,919.023,VALID,0,VALID,99.9557,VALID,-0.0679233,VALID,19.4356,VALID,213,VALID,0.0941612,
2003-04-12, 00:15:00,VALID,919.008,VALID,0,VALID,99.9596,VALID,-0.0339617,VALID,19.4326,VALID,213,VALID,0,
2003-04-12, 00:16:00,VALID,919.016,VALID,0,VALID,99.9672,VALID,-0.0169808,VALID,19.4428,VALID,213,VALID,0,
2003-04-12, 00:17:00,VALID,919.012,VALID,0,VALID,99.9672,VALID,-0.0339617,VALID,19.4225,VALID,213,VALID,0,
2003-04-12, 00:18:00,VALID,919.002,VALID,0,VALID,99.9583,VALID,0,VALID,19.4165,VALID,157,VALID,0.114865,
2003-04-12, 00:19:00,VALID,918.998,VALID,0,VALID,99.9596,VALID,-0.0339617,VALID,19.4033,VALID,82,VALID,0.535051,
2003-04-12, 00:20:00,VALID,918.982,VALID,0,VALID,99.9621,VALID,-0.0339617,VALID,19.3874,VALID,58,VALID,0.850507,
2003-04-12, 00:21:00,VALID,918.979,VALID,0,VALID,99.9596,VALID,0,VALID,19.3521,VALID,61,VALID,0.910491,
2003-04-12, 00:22:00,VALID,918.964,VALID,0,VALID,99.9621,VALID,-0.0169808,VALID,19.316,VALID,66,VALID,0.778083,
2003-04-12, 00:23:00,VALID,918.943,VALID,0,VALID,99.9634,VALID,-0.0509425,VALID,19.2969,VALID,66,VALID,0.808277,
2003-04-12, 00:24:00,VALID,918.934,VALID,0,VALID,99.9621,VALID,-0.0169808,VALID,19.2608,VALID,62,VALID,0.730263,
2003-04-12, 00:25:00,VALID,918.91,VALID,0,VALID,99.9659,VALID,-0.0339617,VALID,19.2484,VALID,61,VALID,0.537418,
2003-04-12, 00:26:00,VALID,918.884,VALID,0,VALID,99.986,VALID,-0.0849042,VALID,19.2419,VALID,60,VALID,0.638529,
2003-04-12, 00:27:00,VALID,918.867,VALID,0,VALID,99.9672,VALID,-0.0509425,VALID,19.2263,VALID,78,VALID,0.815173,
2003-04-12, 00:28:00,VALID,918.86,VALID,0,VALID,99.9697,VALID,-0.0509425,VALID,19.2265,VALID,90,VALID,0.780633,
2003-04-12, 00:29:00,VALID,918.849,VALID,0,VALID,99.9697,VALID,0,VALID,19.2069,VALID,102,VALID,0.766295,
2003-04-12, 00:30:00,VALID,918.838,VALID,0,VALID,99.9809,VALID,-0.0169808,VALID,19.1997,VALID,94,VALID,0.810238,
2003-04-12, 00:31:00,VALID,918.812,VALID,0,VALID,99.9784,VALID,-0.0509425,VALID,19.2069,VALID,87,VALID,0.638839,
2003-04-12, 00:32:00,VALID,918.793,VALID,0,VALID,99.9774,VALID,-0.0679233,VALID,19.2069,VALID,79,VALID,0.78468,
2003-04-12, 00:33:00,VALID,918.765,VALID,0,VALID,99.9837,VALID,-0.0339617,VALID,19.1935,VALID,84,VALID,0.539063,
2003-04-12, 00:34:00,VALID,918.729,VALID,0,VALID,99.9883,VALID,-0.0339617,VALID,19.2036,VALID,77,VALID,0.537212,
2003-04-12, 00:35:00,VALID,918.712,VALID,0,VALID,99.9941,VALID,-0.0339617,VALID,19.1902,VALID,81,VALID,0.738076,
2003-04-12, 00:36:00,VALID,918.695,VALID,0,VALID,99.9941,VALID,-0.0849042,VALID,19.1842,VALID,79,VALID,0.85293,
2003-04-12, 00:37:00,VALID,918.69,VALID,0,VALID,100,VALID,-0.0509425,VALID,19.181,VALID,85,VALID,0.869243,
2003-04-12, 00:38:00,VALID,918.681,VALID,0,VALID,99.9919,VALID,-0.101885,VALID,19.178,VALID,77,VALID,0.680954,
2003-04-12, 00:39:00,VALID,918.687,VALID,0,VALID,99.999,VALID,-0.0679233,VALID,19.1887,VALID,76,VALID,0.708826,
2003-04-12, 00:40:00,VALID,918.676,VALID,0,VALID,99.9977,VALID,-0.0679233,VALID,19.2044,VALID,72,VALID,0.87717,
2003-04-12, 00:41:00,VALID,918.649,VALID,0,VALID,99.9957,VALID,-0.101885,VALID,19.2108,VALID,74,VALID,0.751116,
2003-04-12, 00:42:00,VALID,918.616,VALID,0,VALID,100,VALID,-0.0849042,VALID,19.2173,VALID,80,VALID,0.530869,
2003-04-12, 00:43:00,VALID,918.569,VALID,0,VALID,99.9921,VALID,-0.101885,VALID,19.2238,VALID,90,VALID,0.678632,
2003-04-12, 00:44:00,VALID,918.541,VALID,0,VALID,100,VALID,-0.0849042,VALID,19.2272,VALID,79,VALID,0.532895,
2003-04-12, 00:45:00,VALID,918.522,VALID,0,VALID,100,VALID,-0.0849042,VALID,19.2205,VALID,49,VALID,0.291596,
2003-04-12, 00:46:00,VALID,918.516,VALID,0,VALID,100,VALID,-0.0679233,VALID,19.2006,VALID,41,VALID,0.316211,
2003-04-12, 00:47:00,VALID,918.51,VALID,0,VALID,100,VALID,-0.101885,VALID,19.188,VALID,41,VALID,0.176883,
2003-04-12, 00:48:00,VALID,918.515,VALID,0,VALID,99.9954,VALID,-0.101885,VALID,19.1922,VALID,40,VALID,0.00654561,
2003-04-12, 00:49:00,VALID,918.516,VALID,0,VALID,100,VALID,-0.101885,VALID,19.1693,VALID,38,VALID,0.320524,
2003-04-12, 00:50:00,VALID,918.517,VALID,0,VALID,99.999,VALID,-0.101885,VALID,19.169,VALID,32,VALID,0.362542,
2003-04-12, 00:51:00,VALID,918.526,VALID,0,VALID,100,VALID,-0.101885,VALID,19.1303,VALID,25,VALID,0.345536,
2003-04-12, 00:52:00,VALID,918.514,VALID,0,VALID,100,VALID,-0.101885,VALID,19.1238,VALID,25,VALID,0.0173142,
2003-04-12, 00:53:00,VALID,918.524,VALID,0,VALID,100,VALID,-0.0509425,VALID,19.0937,VALID,25,VALID,0.154561,
2003-04-12, 00:54:00,VALID,918.503,VALID,0,VALID,99.998,VALID,0.0339617,VALID,19.0572,VALID,25,VALID,0.016653,
2003-04-12, 00:55:00,VALID,918.504,VALID,0,VALID,100,VALID,0.0339617,VALID,19.0247,VALID,25,VALID,0.021176,
2003-04-12, 00:56:00,VALID,918.473,VALID,0,VALID,100,VALID,0.0169808,VALID,19.0217,VALID,25,VALID,0.0352515,
2003-04-12, 00:57:00,VALID,918.472,VALID,0,VALID,100,VALID,-0.0169808,VALID,19.0381,VALID,12,VALID,0.0828536,
2003-04-12, 00:58:00,VALID,918.458,VALID,0,VALID,100,VALID,0,VALID,19.0542,VALID,317,VALID,0.122944,
2003-04-12, 00:59:00,VALID,918.455,VALID,0,VALID,99.999,VALID,-0.0169808,VALID,19.0577,VALID,317,VALID,0,
2003-04-12, 01:00:00,VALID,918.461,VALID,0,VALID,100,VALID,0,VALID,19.0386,VALID,317,VALID,0,
2003-04-12, 01:01:00,VALID,918.464,VALID,0,VALID,100,VALID,0.0169808,VALID,19.0254,VALID,317,VALID,0,
2003-04-12, 01:02:00,VALID,918.469,VALID,0,VALID,100,VALID,0,VALID,19.0152,VALID,317,VALID,0,
2003-04-12, 01:03:00,VALID,918.458,VALID,0,VALID,100,VALID,0,VALID,19.0092,VALID,317,VALID,0,
2003-04-12, 01:04:00,VALID,918.45,VALID,0,VALID,100,VALID,-0.0339617,VALID,19.003,VALID,317,VALID,0,
2003-04-12, 01:05:00,VALID,918.456,VALID,0,VALID,100,VALID,0,VALID,18.9739,VALID,317,VALID,0,
2003-04-12, 01:06:00,VALID,918.459,VALID,0,VALID,100,VALID,-0.0169808,VALID,18.9511,VALID,317,VALID,0,
2003-04-12, 01:07:00,VALID,918.458,VALID,0,VALID,100,VALID,-0.0169808,VALID,18.9021,VALID,317,VALID,0,
2003-04-12, 01:08:00,VALID,918.467,VALID,0,VALID,100,VALID,-0.0339617,VALID,18.8382,VALID,317,VALID,0,
2003-04-12, 01:09:00,VALID,918.478,VALID,0,VALID,100,VALID,-0.118866,VALID,18.823,VALID,317,VALID,0,
2003-04-12, 01:10:00,VALID,918.485,VALID,0,VALID,100,VALID,-0.0679233,VALID,18.7874,VALID,317,VALID,0.0594618,
2003-04-12, 01:11:00,VALID,918.476,VALID,0,VALID,100,VALID,-0.101885,VALID,18.7553,VALID,317,VALID,0.162946,
2003-04-12, 01:12:00,VALID,918.474,VALID,0,VALID,100,VALID,-0.101885,VALID,18.7486,VALID,313,VALID,0.147294,
2003-04-12, 01:13:00,VALID,918.469,VALID,0,VALID,100,VALID,-0.101885,VALID,18.7519,VALID,311,VALID,0.304265,
2003-04-12, 01:14:00,VALID,918.467,VALID,0,VALID,100,VALID,-0.118866,VALID,18.7396,VALID,274,VALID,0.263158,
2003-04-12, 01:15:00,VALID,918.47,VALID,0,VALID,100,VALID,-0.118866,VALID,18.7329,VALID,155,VALID,0.390414,
2003-04-12, 01:16:00,VALID,918.452,VALID,0,VALID,100,VALID,-0.0849042,VALID,18.723,VALID,140,VALID,0.250195,
2003-04-12, 01:17:00,VALID,918.459,VALID,0,VALID,100,VALID,-0.0849042,VALID,18.7327,VALID,133,VALID,0.369992,
2003-04-12, 01:18:00,VALID,918.452,VALID,0,VALID,100,VALID,-0.101885,VALID,18.7422,VALID,127,VALID,0.230785,
2003-04-12, 01:19:00,VALID,918.453,VALID,0,VALID,100,VALID,-0.0509425,VALID,18.7556,VALID,127,VALID,0.189823,
2003-04-12, 01:20:00,VALID,918.434,VALID,0,VALID,100,VALID,-0.0849042,VALID,18.7521,VALID,127,VALID,0.317145,
2003-04-12, 01:21:00,VALID,918.426,VALID,0,VALID,100,VALID,-0.0679233,VALID,18.7549,VALID,127,VALID,0.207143,
2003-04-12, 01:22:00,VALID,918.419,VALID,0,VALID,100,VALID,-0.0679233,VALID,18.7812,VALID,127,VALID,0.129434,
2003-04-12, 01:23:00,VALID,918.394,VALID,0,VALID,100,VALID,0,VALID,18.7999,VALID,127,VALID,0.109375,
2003-04-12, 01:24:00,VALID,918.394,VALID,0,VALID,100,VALID,0.0679233,VALID,18.786,VALID,127,VALID,0.0359786,
2003-04-12, 01:25:00,VALID,918.387,VALID,0,VALID,100,VALID,0.101885,VALID,18.7147,VALID,127,VALID,0.0555099,
2003-04-12, 01:26:00,VALID,918.378,VALID,0,VALID,100,VALID,0.0509425,VALID,18.6274,VALID,57,VALID,0.293826,
2003-04-12, 01:27:00,VALID,918.37,VALID,0,VALID,100,VALID,0.101885,VALID,18.6016,VALID,47,VALID,0.309622,
2003-04-12, 01:28:00,VALID,918.348,VALID,0,VALID,100,VALID,0.0169808,VALID,18.5501,VALID,43,VALID,0.588816,
2003-04-12, 01:29:00,VALID,918.344,VALID,0,VALID,100,VALID,0.0509425,VALID,18.5111,VALID,41,VALID,0.737277,
2003-04-12, 01:30:00,VALID,918.334,VALID,0,VALID,100,VALID,0.0169808,VALID,18.5766,VALID,47,VALID,0.78125,
2003-04-12, 01:31:00,VALID,918.31,VALID,0,VALID,100,VALID,0.0509425,VALID,18.6117,VALID,54,VALID,0.846429,
2003-04-12, 01:32:00,VALID,918.296,VALID,0,VALID,100,VALID,0.0169808,VALID,18.6283,VALID,59,VALID,1.02363,
2003-04-12, 01:33:00,VALID,918.278,VALID,0,VALID,100,VALID,0.0169808,VALID,18.702,VALID,57,VALID,1.01943,
2003-04-12, 01:34:00,VALID,918.25,VALID,0,VALID,100,VALID,0.0339617,VALID,18.7701,VALID,57,VALID,0.926604,
2003-04-12, 01:35:00,VALID,918.262,VALID,0,VALID,100,VALID,0.0169808,VALID,18.7795,VALID,57,VALID,0.718133,
2003-04-12, 01:36:00,VALID,918.263,VALID,0,VALID,100,VALID,0.0169808,VALID,18.7407,VALID,60,VALID,0.623242,
2003-04-12, 01:37:00,VALID,918.253,VALID,0,VALID,100,VALID,-0.0169808,VALID,18.7191,VALID,63,VALID,0.556743,
2003-04-12, 01:38:00,VALID,918.248,VALID,0,VALID,100,VALID,0.0169808,VALID,18.6828,VALID,87,VALID,0.488809,
2003-04-12, 01:39:00,VALID,918.241,VALID,0,VALID,100,VALID,0,VALID,18.657,VALID,90,VALID,0.439189,
2003-04-12, 01:40:00,VALID,918.235,VALID,0,VALID,100,VALID,0,VALID,18.6313,VALID,77,VALID,0.530165,
2003-04-12, 01:41:00,VALID,918.202,VALID,0,VALID,100,VALID,-0.0169808,VALID,18.5963,VALID,70,VALID,0.482812,
2003-04-12, 01:42:00,VALID,918.197,VALID,0,VALID,100,VALID,0.0509425,VALID,18.5568,VALID,70,VALID,0.56955,
2003-04-12, 01:43:00,VALID,918.193,VALID,0,VALID,100,VALID,0.0339617,VALID,18.5471,VALID,72,VALID,0.5625,
2003-04-12, 01:44:01,VALID,918.185,VALID,0,VALID,100,VALID,0.0169808,VALID,18.5439,VALID,82,VALID,0.595189,
2003-04-12, 01:45:00,VALID,918.18,VALID,0,VALID,100,VALID,0,VALID,18.5441,VALID,78,VALID,0.644426,
2003-04-12, 01:46:00,VALID,918.184,VALID,0,VALID,100,VALID,0.0169808,VALID,18.5573,VALID,70,VALID,0.629883,
2003-04-12, 01:47:00,VALID,918.176,VALID,0,VALID,100,VALID,0.0339617,VALID,18.5342,VALID,78,VALID,0.663061,
2003-04-12, 01:48:00,VALID,918.167,VALID,0,VALID,100,VALID,0.0169808,VALID,18.5376,VALID,83,VALID,0.5625,
2003-04-12, 01:49:00,VALID,918.161,VALID,0,VALID,100,VALID,0,VALID,18.5476,VALID,89,VALID,0.667441,
2003-04-12, 01:50:00,VALID,918.151,VALID,0,VALID,100,VALID,0.0339617,VALID,18.5993,VALID,104,VALID,0.665541,
2003-04-12, 01:51:00,VALID,918.144,VALID,0,VALID,100,VALID,0.0509425,VALID,18.6607,VALID,103,VALID,0.661384,
2003-04-12, 01:52:01,VALID,918.159,VALID,0,VALID,100,VALID,0.0169808,VALID,18.7382,VALID,99,VALID,0.70228,
2003-04-12, 01:53:00,VALID,918.153,VALID,0,VALID,100,VALID,0.0509425,VALID,18.7507,VALID,101,VALID,0.736698,
2003-04-12, 01:54:00,VALID,918.155,VALID,0,VALID,100,VALID,0.0169808,VALID,18.7765,VALID,117,VALID,0.923725,
2003-04-12, 01:55:00,VALID,918.14,VALID,0,VALID,100,VALID,0.0509425,VALID,18.8185,VALID,121,VALID,1.01439,
2003-04-12, 01:56:00,VALID,918.129,VALID,0,VALID,100,VALID,0.0339617,VALID,18.8315,VALID,120,VALID,0.804878,
2003-04-12, 01:57:00,VALID,918.111,VALID,0,VALID,100,VALID,0.0679233,VALID,18.8375,VALID,115,VALID,0.720806,
2003-04-12, 01:58:00,VALID,918.091,VALID,0,VALID,100,VALID,0.0339617,VALID,18.8409,VALID,124,VALID,0.504934,
2003-04-12, 01:59:01,VALID,918.06,VALID,0,VALID,100,VALID,0.0169808,VALID,18.8476,VALID,129,VALID,0.564509,
2003-04-12, 02:00:00,VALID,918.051,VALID,0,VALID,100,VALID,0,VALID,18.8511,VALID,136,VALID,0.646793,
2003-04-12, 02:01:00,VALID,918.036,VALID,0,VALID,100,VALID,0.0339617,VALID,18.8834,VALID,143,VALID,0.759152,
2003-04-12, 02:02:00,VALID,918.032,VALID,0,VALID,100,VALID,0,VALID,18.9252,VALID,149,VALID,1.10423,
2003-04-12, 02:03:00,VALID,918.021,VALID,0,VALID,100,VALID,0.0679233,VALID,18.9672,VALID,149,VALID,1.17788,
2003-04-12, 02:04:00,VALID,918.006,VALID,0,VALID,100,VALID,0.0169808,VALID,18.9834,VALID,150,VALID,0.992804,
2003-04-12, 02:05:00,VALID,917.996,VALID,0,VALID,100,VALID,0.0339617,VALID,18.9864,VALID,155,VALID,0.808183,
2003-04-12, 02:06:00,VALID,917.99,VALID,0,VALID,100,VALID,0.0169808,VALID,18.9901,VALID,158,VALID,0.719727,
2003-04-12, 02:07:00,VALID,917.991,VALID,0,VALID,100,VALID,0.0169808,VALID,18.9898,VALID,153,VALID,0.38898,
2003-04-12, 02:08:00,VALID,917.988,VALID,0,VALID,100,VALID,-0.0509425,VALID,18.9908,VALID,151,VALID,0.290541,
2003-04-12, 02:09:00,VALID,917.986,VALID,0,VALID,100,VALID,-0.118866,VALID,18.9985,VALID,139,VALID,0.389569,
2003-04-12, 02:10:00,VALID,917.987,VALID,0,VALID,100,VALID,-0.0679233,VALID,18.9913,VALID,143,VALID,0.35026,
2003-04-12, 02:11:01,VALID,918.006,VALID,0,VALID,100,VALID,-0.0679233,VALID,18.9945,VALID,145,VALID,0.356473,
2003-04-12, 02:12:00,VALID,918.018,VALID,0,VALID,100,VALID,-0.101885,VALID,18.9987,VALID,145,VALID,0.363377,
2003-04-12, 02:13:00,VALID,918.023,VALID,0,VALID,100,VALID,-0.0679233,VALID,18.9947,VALID,146,VALID,0.237965,
2003-04-12, 02:14:01,VALID,918.013,VALID,0,VALID,100,VALID,-0.0679233,VALID,18.988,VALID,146,VALID,0.383635,
2003-04-12, 02:15:00,VALID,918.022,VALID,0,VALID,100,VALID,-0.0849042,VALID,18.9975,VALID,156,VALID,0.671664,
2003-04-12, 02:16:00,VALID,918.006,VALID,0,VALID,100,VALID,-0.0509425,VALID,19.0169,VALID,149,VALID,0.770898,
2003-04-12, 02:17:00,VALID,918.018,VALID,0,VALID,100,VALID,-0.101885,VALID,19.0331,VALID,147,VALID,0.83754,
2003-04-12, 02:18:00,VALID,918.032,VALID,0,VALID,100,VALID,-0.0679233,VALID,19.0462,VALID,150,VALID,0.792441,
2003-04-12, 02:19:01,VALID,918.038,VALID,0,VALID,100,VALID,-0.0339617,VALID,19.0621,VALID,149,VALID,0.699747,
2003-04-12, 02:20:00,VALID,918.039,VALID,0,VALID,100,VALID,-0.0679233,VALID,19.0688,VALID,145,VALID,0.476563,
2003-04-12, 02:21:00,VALID,918.031,VALID,0,VALID,100,VALID,-0.0849042,VALID,19.0751,VALID,142,VALID,0.312723,
2003-04-12, 02:22:01,VALID,918.019,VALID,0,VALID,100,VALID,-0.0339617,VALID,19.0714,VALID,128,VALID,0.334671,
2003-04-12, 02:23:00,VALID,918.014,VALID,0,VALID,100,VALID,-0.0169808,VALID,19.0907,VALID,125,VALID,0.0768581,
2003-04-12, 02:24:01,VALID,917.993,VALID,0,VALID,100,VALID,0.0169808,VALID,19.0734,VALID,125,VALID,0.280016,
2003-04-12, 02:25:00,VALID,917.969,VALID,0,VALID,100,VALID,0.0169808,VALID,19.0699,VALID,125,VALID,0.292763,
2003-04-12, 02:26:01,VALID,917.951,VALID,0,VALID,100,VALID,0,VALID,19.0764,VALID,122,VALID,0.26391,
2003-04-12, 02:27:00,VALID,917.958,VALID,0,VALID,100,VALID,0.0339617,VALID,19.0831,VALID,122,VALID,0.298931,
2003-04-12, 02:28:00,VALID,917.955,VALID,0,VALID,100,VALID,0,VALID,19.0801,VALID,122,VALID,0.2169,
2003-04-12, 02:29:01,VALID,917.952,VALID,0,VALID,100,VALID,0.0169808,VALID,19.0769,VALID,119,VALID,0.310045,
2003-04-12, 02:30:00,VALID,917.96,VALID,0,VALID,100,VALID,0.0169808,VALID,19.0741,VALID,105,VALID,0.436061,
2003-04-12, 02:31:00,VALID,917.944,VALID,0,VALID,100,VALID,0,VALID,19.0706,VALID,103,VALID,0.802232,
2003-04-12, 02:32:00,VALID,917.958,VALID,0,VALID,100,VALID,0.0169808,VALID,19.0773,VALID,86,VALID,0.521341,
2003-04-12, 02:33:00,VALID,917.959,VALID,0,VALID,100,VALID,0,VALID,19.0672,VALID,104,VALID,0.771034,
2003-04-12, 02:34:00,VALID,917.945,VALID,0,VALID,100,VALID,0,VALID,19.0672,VALID,105,VALID,0.797081,
2003-04-12, 02:35:00,VALID,917.929,VALID,0,VALID,100,VALID,0.0169808,VALID,19.0803,VALID,111,VALID,0.668997,
2003-04-12, 02:36:00,VALID,917.926,VALID,0,VALID,100,VALID,0.0169808,VALID,19.0831,VALID,104,VALID,0.441602,
2003-04-12, 02:37:00,VALID,917.905,VALID,0,VALID,100,VALID,0.0509425,VALID,19.0734,VALID,90,VALID,0.483141,
2003-04-12, 02:38:00,VALID,917.882,VALID,0,VALID,100,VALID,0.0169808,VALID,19.0699,VALID,84,VALID,0.377323,
2003-04-12, 02:39:00,VALID,917.858,VALID,0,VALID,100,VALID,0.0339617,VALID,19.0602,VALID,77,VALID,0.379223,
2003-04-12, 02:40:00,VALID,917.834,VALID,0,VALID,100,VALID,0.0169808,VALID,19.0642,VALID,71,VALID,0.475911,
2003-04-12, 02:41:01,VALID,917.812,VALID,0,VALID,100,VALID,0.0339617,VALID,19.0508,VALID,79,VALID,0.370313,
2003-04-12, 02:42:00,VALID,917.788,VALID,0,VALID,100,VALID,0,VALID,19.0512,VALID,81,VALID,0.52077,
2003-04-12, 02:43:00,VALID,917.78,VALID,0,VALID,100,VALID,0.0169808,VALID,19.0445,VALID,91,VALID,0.434122,
2003-04-12, 02:44:01,VALID,917.793,VALID,0,VALID,100,VALID,0,VALID,19.0217,VALID,123,VALID,0.354235,
2003-04-12, 02:45:00,VALID,917.793,VALID,0,VALID,100,VALID,0.0509425,VALID,19.0348,VALID,123,VALID,0.432221,
2003-04-12, 02:46:00,VALID,917.798,VALID,0,VALID,100,VALID,0.0169808,VALID,19.0413,VALID,128,VALID,0.522656,
2003-04-12, 02:47:00,VALID,917.813,VALID,0,VALID,100,VALID,0.0169808,VALID,19.0478,VALID,131,VALID,0.566306,
2003-04-12, 02:48:00,VALID,917.81,VALID,0,VALID,100,VALID,0.0339617,VALID,19.051,VALID,120,VALID,0.495144,
2003-04-12, 02:49:00,VALID,917.788,VALID,0,VALID,100,VALID,0.0169808,VALID,19.0478,VALID,112,VALID,0.453758,
2003-04-12, 02:50:00,VALID,917.777,VALID,0,VALID,100,VALID,0.0339617,VALID,19.054,VALID,138,VALID,0.503801,
2003-04-12, 02:51:00,VALID,917.758,VALID,0,VALID,100,VALID,0.0169808,VALID,19.0702,VALID,132,VALID,0.504464,
2003-04-12, 02:52:01,VALID,917.734,VALID,0,VALID,100,VALID,0.0339617,VALID,19.0833,VALID,141,VALID,0.470228,
2003-04-12, 02:53:00,VALID,917.718,VALID,0,VALID,100,VALID,0.0509425,VALID,19.0928,VALID,150,VALID,0.696368,
2003-04-12, 02:54:01,VALID,917.697,VALID,0,VALID,100,VALID,0.0339617,VALID,19.0898,VALID,148,VALID,0.80222,
2003-04-12, 02:55:00,VALID,917.66,VALID,0,VALID,100,VALID,0.0339617,VALID,19.0861,VALID,150,VALID,0.419408,
2003-04-12, 02:56:01,VALID,917.642,VALID,0,VALID,100,VALID,0.0679233,VALID,19.0893,VALID,142,VALID,0.450267,
2003-04-12, 02:57:00,VALID,917.635,VALID,0,VALID,100,VALID,0.0509425,VALID,19.0831,VALID,140,VALID,0.358758,
2003-04-12, 02:58:00,VALID,917.618,VALID,0,VALID,100,VALID,0.0679233,VALID,19.0791,VALID,140,VALID,0.246094,
2003-04-12, 02:59:01,VALID,917.61,VALID,0,VALID,100,VALID,0.0169808,VALID,19.0729,VALID,140,VALID,0.0901786,
2003-04-12, 03:00:00,VALID,917.602,VALID,0,VALID,100,VALID,0.0679233,VALID,19.0833,VALID,140,VALID,0,
2003-04-12, 03:01:00,VALID,917.594,VALID,0,VALID,100,VALID,0.0169808,VALID,19.0664,VALID,140,VALID,0,
2003-04-12, 03:02:00,VALID,917.602,VALID,0,VALID,100,VALID,0.0169808,VALID,19.05,VALID,140,VALID,0.00114329,
2003-04-12, 03:03:00,VALID,917.597,VALID,0,VALID,100,VALID,0.0339617,VALID,19.0635,VALID,94,VALID,0.220954,
2003-04-12, 03:04:00,VALID,917.587,VALID,0,VALID,100,VALID,0,VALID,19.0542,VALID,44,VALID,0.664063,
2003-04-12, 03:05:00,VALID,917.586,VALID,0,VALID,100,VALID,0.0169808,VALID,19.0281,VALID,37,VALID,0.745683,
2003-04-12, 03:06:00,VALID,917.58,VALID,0,VALID,100,VALID,0,VALID,18.9993,VALID,27,VALID,0.912695,
2003-04-12, 03:07:00,VALID,917.591,VALID,0,VALID,100,VALID,0.0169808,VALID,18.9603,VALID,27,VALID,0.833265,
2003-04-12, 03:08:00,VALID,917.596,VALID,0,VALID,100,VALID,0.0169808,VALID,18.9282,VALID,27,VALID,0.671875,
2003-04-12, 03:09:00,VALID,917.602,VALID,0,VALID,100,VALID,0.0169808,VALID,18.8855,VALID,36,VALID,0.559122,
2003-04-12, 03:10:00,VALID,917.604,VALID,0,VALID,100,VALID,0.0339617,VALID,18.8829,VALID,46,VALID,0.569227,
2003-04-12, 03:11:01,VALID,917.596,VALID,0,VALID,100,VALID,0,VALID,18.8797,VALID,50,VALID,0.408929,
2003-04-12, 03:12:00,VALID,917.608,VALID,0,VALID,100,VALID,0.0339617,VALID,18.8767,VALID,50,VALID,0.30888,
2003-04-12, 03:13:00,VALID,917.592,VALID,0,VALID,100,VALID,0.0169808,VALID,18.8665,VALID,50,VALID,0.260557,
2003-04-12, 03:14:01,VALID,917.588,VALID,0,VALID,100,VALID,0.0339617,VALID,18.8663,VALID,38,VALID,0.33491,
2003-04-12, 03:15:00,VALID,917.574,VALID,0,VALID,100,VALID,0.0509425,VALID,18.8442,VALID,32,VALID,0.458404,
2003-04-12, 03:16:00,VALID,917.571,VALID,0,VALID,100,VALID,0.0339617,VALID,18.8211,VALID,32,VALID,0.510156,
2003-04-12, 03:17:00,VALID,917.573,VALID,0,VALID,100,VALID,0.0509425,VALID,18.8084,VALID,29,VALID,0.50621,
2003-04-12, 03:18:00,VALID,917.558,VALID,0,VALID,100,VALID,0,VALID,18.7825,VALID,27,VALID,0.524916,
2003-04-12, 03:19:01,VALID,917.563,VALID,0,VALID,100,VALID,0.0169808,VALID,18.7825,VALID,34,VALID,0.465794,
2003-04-12, 03:20:00,VALID,917.568,VALID,0,VALID,100,VALID,0.0169808,VALID,18.783,VALID,57,VALID,0.504223,
2003-04-12, 03:21:00,VALID,917.577,VALID,0,VALID,100,VALID,0.0339617,VALID,18.7984,VALID,74,VALID,0.602232,
2003-04-12, 03:22:01,VALID,917.582,VALID,0,VALID,100,VALID,0.0169808,VALID,18.8213,VALID,83,VALID,0.670397,
2003-04-12, 03:23:00,VALID,917.58,VALID,0,VALID,100,VALID,-0.0169808,VALID,18.8479,VALID,102,VALID,0.81799,
2003-04-12, 03:24:01,VALID,917.565,VALID,0,VALID,100,VALID,-0.0339617,VALID,18.8876,VALID,97,VALID,0.690789,
2003-04-12, 03:25:00,VALID,917.542,VALID,0,VALID,100,VALID,-0.0509425,VALID,18.8874,VALID,94,VALID,0.412212,
2003-04-12, 03:26:01,VALID,917.531,VALID,0,VALID,100,VALID,-0.0509425,VALID,18.8717,VALID,94,VALID,0.0398247,
2003-04-12, 03:27:01,VALID,917.5,VALID,0,VALID,100,VALID,-0.0509425,VALID,18.8456,VALID,94,VALID,0.00164474,
2003-04-12, 03:28:00,VALID,917.49,VALID,0,VALID,100,VALID,-0.0509425,VALID,18.823,VALID,94,VALID,0.0834704,
2003-04-12, 03:29:01,VALID,917.49,VALID,0,VALID,100,VALID,-0.0849042,VALID,18.8033,VALID,94,VALID,0.204018,
2003-04-12, 03:30:00,VALID,917.493,VALID,0,VALID,100,VALID,-0.0509425,VALID,18.7971,VALID,138,VALID,0.449219,
2003-04-12, 03:31:01,VALID,917.514,VALID,0,VALID,100,VALID,-0.0679233,VALID,18.807,VALID,145,VALID,0.357589,
2003-04-12, 03:32:01,VALID,917.534,VALID,0,VALID,100,VALID,-0.0339617,VALID,18.7964,VALID,138,VALID,0.4758,
2003-04-12, 03:33:00,VALID,917.542,VALID,0,VALID,100,VALID,-0.0509425,VALID,18.823,VALID,121,VALID,0.440505,
2003-04-12, 03:34:01,VALID,917.547,VALID,0,VALID,100,VALID,-0.0849042,VALID,18.823,VALID,114,VALID,0.525905,
2003-04-12, 03:35:01,VALID,917.554,VALID,0,VALID,100,VALID,-0.0339617,VALID,18.8193,VALID,117,VALID,0.39412,
2003-04-12, 03:36:01,VALID,917.558,VALID,0,VALID,100,VALID,-0.0509425,VALID,18.8195,VALID,118,VALID,0.172266,
2003-04-12, 03:37:01,VALID,917.562,VALID,0,VALID,100,VALID,-0.0679233,VALID,18.778,VALID,98,VALID,0.27097,
2003-04-12, 03:38:01,VALID,917.555,VALID,0,VALID,100,VALID,-0.0849042,VALID,18.7034,VALID,80,VALID,0.26288,
2003-04-12, 03:39:01,VALID,917.543,VALID,0,VALID,100,VALID,-0.0849042,VALID,18.6778,VALID,80,VALID,0.0339949,